User: anonymous   Login
Location: Godzisko
(49.9648°N, 19.4576°E)
Time: 08:51:37
(UTC+00:00)
Language:

CZ-4 R/B - Orbit

View from above orbital plane
View from above orbital plane
View from above satellite
View from above satellite

Ground track
Ground track

The orbit data is extracted from the following two-line orbital elements,

1 28059U 03049C   21164.88030112  .00000043  00000-0  21990-4 0  9999
2 28059  98.4950  91.6129 0051158 113.1323 247.5275 14.52654385935308
Epoch (UTC): 13 June 2021 21:07:38
Eccentricity: 0.0051158
inclination: 98.4950°
perigee height: 680 km
apogee height: 753 km
right ascension of ascending node: 91.6129°
argument of perigee: 113.1323°
revolutions per day: 14.52654385
mean anomaly at epoch: 247.5275°
orbit number at epoch: 93530

The dashed part of the orbit path shows where the satellite is in the earth's shadow,  

DLR